| time (UTC) | temp F | wind direction | speed MPH | gust MPH | rain 1hr in | rain 24hr in | rain mn in | humidity % | barometer mb |
| 20260503211519 | 52 | 172 | 2.0 | 2.0 | 0.00 | 0.00 | 0.00 | 46 | 1015.6 |
| 20260503210540 | 52 | 123 | 1.0 | 2.0 | 0.00 | 0.00 | 0.00 | 49 | 1015.7 |
| 20260503205520 | 51 | 135 | 2.0 | 3.0 | 0.00 | 0.00 | 0.00 | 50 | 1015.8 |
| 20260503204519 | 51 | 152 | 1.0 | 2.0 | 0.00 | 0.00 | 0.00 | 52 | 1015.8 |
| 20260503203519 | 52 | 147 | 1.0 | 2.0 | 0.00 | 0.00 | 0.00 | 48 | 1016.0 |
| 20260503202520 | 53 | 108 | 4.0 | 4.0 | 0.00 | 0.00 | 0.00 | 47 | 1016.0 |
| 20260503201520 | 53 | 116 | 2.0 | 2.0 | 0.00 | 0.00 | 0.00 | 47 | 1016.1 |
| 20260503200519 | 53 | 136 | 2.0 | 3.0 | 0.00 | 0.00 | 0.00 | 47 | 1016.2 |
| 20260503195519 | 53 | 123 | 2.0 | 3.0 | 0.00 | 0.00 | 0.00 | 48 | 1016.2 |
| 20260503194518 | 53 | 151 | 2.0 | 3.0 | 0.00 | 0.00 | 0.00 | 48 | 1016.2 |
| 20260503193520 | 53 | 147 | 1.0 | 2.0 | 0.00 | 0.00 | 0.00 | 49 | 1016.3 |
| 20260503192519 | 53 | 155 | 1.0 | 3.0 | 0.00 | 0.00 | 0.00 | 47 | 1016.3 |
| 20260503191518 | 54 | 155 | 3.0 | 4.0 | 0.00 | 0.00 | 0.00 | 46 | 1016.2 |
| 20260503190520 | 54 | 158 | 3.0 | 4.0 | 0.00 | 0.00 | 0.00 | 45 | 1016.3 |
| 20260503185519 | 54 | 163 | 2.0 | 3.0 | 0.00 | 0.00 | 0.00 | 46 | 1016.2 |
| 20260503184521 | 54 | 168 | 3.0 | 4.0 | 0.00 | 0.00 | 0.00 | 46 | 1016.3 |
| 20260503183519 | 55 | 158 | 3.0 | 5.0 | 0.00 | 0.00 | 0.00 | 45 | 1016.2 |
| 20260503182519 | 55 | 156 | 2.0 | 3.0 | 0.00 | 0.00 | 0.00 | 45 | 1016.2 |
| 20260503181519 | 55 | 159 | 3.0 | 4.0 | 0.00 | 0.00 | 0.00 | 45 | 1016.2 |
| 20260503180518 | 55 | 143 | 2.0 | 3.0 | 0.00 | 0.00 | 0.00 | 46 | 1016.2 |
| 20260503175519 | 56 | 154 | 1.0 | 2.0 | 0.00 | 0.00 | 0.00 | 45 | 1016.3 |
| 20260503174519 | 56 | 144 | 3.0 | 3.0 | 0.00 | 0.00 | 0.00 | 45 | 1016.5 |
| 20260503173520 | 56 | 122 | 2.0 | 2.0 | 0.00 | 0.00 | 0.00 | 44 | 1016.3 |
| 20260503172520 | 57 | 165 | 2.0 | 3.0 | 0.00 | 0.00 | 0.00 | 43 | 1016.3 |
| 20260503171519 | 58 | 173 | 1.0 | 3.0 | 0.00 | 0.00 | 0.00 | 42 | 1016.4 |
| 20260503170519 | 58 | 190 | 1.0 | 2.0 | 0.00 | 0.00 | 0.00 | 42 | 1016.5 |
| 20260503150540 | 60 | 284 | 5.0 | 8.0 | 0.00 | 0.00 | 0.00 | 36 | 1017.2 |
| 20260503130519 | 61 | 228 | 2.0 | 4.0 | 0.00 | 0.00 | 0.00 | 32 | 1018.5 |
| 20260503110517 | 61 | 318 | 7.0 | 13.0 | 0.00 | 0.00 | 0.00 | 32 | 1020.0 |
| 20260503081518 | 57 | 298 | 7.0 | 11.0 | 0.00 | 0.00 | 0.00 | 32 | 1021.6 |
| 20260503080517 | 57 | 312 | 4.0 | 8.0 | 0.00 | 0.00 | 0.00 | 33 | 1021.6 |
| 20260503072537 | 55 | 139 | 3.0 | 6.0 | 0.00 | 0.00 | 0.00 | 42 | 1021.7 |
| 20260503071517 | 55 | 192 | 5.0 | 8.0 | 0.00 | 0.00 | 0.00 | 43 | 1021.8 |
| 20260503070518 | 55 | 160 | 4.0 | 9.0 | 0.00 | 0.00 | 0.00 | 46 | 1021.8 |
| 20260503054518 | 49 | 165 | 3.0 | 4.0 | 0.00 | 0.00 | 0.00 | 55 | 1021.6 |
| 20260503053538 | 48 | 167 | 3.0 | 4.0 | 0.00 | 0.00 | 0.00 | 56 | 1021.6 |
| 20260503052539 | 48 | 161 | 3.0 | 4.0 | 0.00 | 0.00 | 0.00 | 55 | 1021.6 |
| 20260503051517 | 47 | 162 | 3.0 | 4.0 | 0.00 | 0.00 | 0.00 | 55 | 1021.6 |
| 20260503050517 | 47 | 152 | 1.0 | 3.0 | 0.00 | 0.00 | 0.00 | 55 | 1021.5 |
| 20260503045517 | 47 | 38 | 2.0 | 4.0 | 0.00 | 0.00 | 0.00 | 56 | 1021.5 |
| 20260503044518 | 46 | 147 | 1.0 | 4.0 | 0.00 | 0.00 | 0.00 | 57 | 1021.4 |
| 20260503043517 | 44 | 96 | 1.0 | 4.0 | 0.00 | 0.00 | 0.00 | 60 | 1021.4 |
| 20260503042517 | 43 | 144 | 1.0 | 5.0 | 0.00 | 0.00 | 0.00 | 61 | 1021.4 |
| 20260503041517 | 42 | 147 | 3.0 | 4.0 | 0.00 | 0.00 | 0.00 | 60 | 1021.4 |
| 20260503040516 | 41 | 137 | 2.0 | 4.0 | 0.00 | 0.00 | 0.00 | 62 | 1021.3 |
| 20260503035517 | 41 | 102 | 2.0 | 5.0 | 0.00 | 0.00 | 0.00 | 61 | 1021.2 |
| 20260503034517 | 40 | 39 | 2.0 | 5.0 | 0.00 | 0.00 | 0.00 | 63 | 1021.1 |
| 20260503033518 | 39 | 114 | 2.0 | 4.0 | 0.00 | 0.00 | 0.00 | 67 | 1021.1 |
| 20260503032538 | 38 | 78 | 2.0 | 6.0 | 0.00 | 0.00 | 0.00 | 67 | 1021.1 |
| 20260503031537 | 37 | 167 | 1.0 | 3.0 | 0.00 | 0.00 | 0.00 | 69 | 1021.0 |
| 20260503030516 | 37 | 129 | 2.0 | 3.0 | 0.00 | 0.00 | 0.00 | 69 | 1020.9 |
| 20260503025517 | 37 | 52 | 2.0 | 4.0 | 0.00 | 0.00 | 0.00 | 68 | 1021.0 |
| 20260503024517 | 39 | 167 | 1.0 | 3.0 | 0.00 | 0.00 | 0.00 | 64 | 1020.9 |
| 20260503023517 | 39 | 149 | 3.0 | 5.0 | 0.00 | 0.00 | 0.00 | 63 | 1020.9 |
| 20260503022537 | 39 | 11 | 2.0 | 6.0 | 0.00 | 0.00 | 0.00 | 62 | 1020.8 |
| 20260503021518 | 38 | 49 | 2.0 | 3.0 | 0.00 | 0.00 | 0.00 | 64 | 1020.9 |
| 20260503020517 | 39 | 148 | 2.0 | 4.0 | 0.00 | 0.00 | 0.00 | 62 | 1020.9 |
| 20260503015519 | 39 | 112 | 2.0 | 4.0 | 0.00 | 0.00 | 0.00 | 62 | 1020.9 |
| 20260503014516 | 40 | 135 | 2.0 | 4.0 | 0.00 | 0.00 | 0.00 | 60 | 1020.8 |
| 20260503013537 | 41 | 131 | 2.0 | 5.0 | 0.00 | 0.00 | 0.00 | 56 | 1020.8 |
| 20260503012537 | 42 | 49 | 3.0 | 6.0 | 0.00 | 0.00 | 0.00 | 54 | 1020.9 |
| 20260503011557 | 42 | 69 | 2.0 | 5.0 | 0.00 | 0.00 | 0.00 | 54 | 1020.8 |
| 20260503010537 | 42 | 10 | 1.0 | 4.0 | 0.00 | 0.00 | 0.00 | 55 | 1020.9 |
| 20260503005517 | 42 | 8 | 1.0 | 2.0 | 0.00 | 0.00 | 0.00 | 56 | 1021.0 |
| 20260503004518 | 41 | 11 | 2.0 | 3.0 | 0.00 | 0.00 | 0.00 | 57 | 1020.9 |
| 20260503003516 | 41 | 62 | 1.0 | 2.0 | 0.00 | 0.00 | 0.00 | 57 | 1021.0 |
| 20260503002537 | 43 | 165 | 0.0 | 2.0 | 0.00 | 0.00 | 0.00 | 56 | 1021.0 |
| 20260503001517 | 43 | 147 | 2.0 | 3.0 | 0.00 | 0.00 | 0.00 | 53 | 1021.0 |
| 20260503000517 | 43 | 268 | 0.0 | 2.0 | 0.00 | 0.00 | 0.00 | 53 | 1021.0 |
| 20260502235538 | 43 | 0.0 | 0.0 | 0.00 | 0.00 | 0.00 | 53 | 1021.0 | |
| 20260502234518 | 43 | 0.0 | 1.0 | 0.00 | 0.00 | 0.00 | 54 | 1021.1 | |
| 20260502233537 | 42 | 258 | 0.0 | 2.0 | 0.00 | 0.00 | 0.00 | 55 | 1021.1 |
| 20260502232518 | 42 | 0.0 | 1.0 | 0.00 | 0.00 | 0.00 | 56 | 1021.0 | |
| 20260502231517 | 42 | 126 | 0.0 | 2.0 | 0.00 | 0.00 | 0.00 | 56 | 1021.2 |
| 20260502230516 | 43 | 39 | 0.0 | 1.0 | 0.00 | 0.00 | 0.00 | 55 | 1021.2 |
| 20260502225517 | 43 | 0.0 | 0.0 | 0.00 | 0.00 | 0.00 | 55 | 1021.4 | |
| 20260502224516 | 43 | 0.0 | 0.0 | 0.00 | 0.00 | 0.00 | 55 | 1021.3 | |
| 20260502223556 | 43 | 0.0 | 3.0 | 0.00 | 0.00 | 0.00 | 55 | 1021.3 | |
| 20260502222537 | 43 | 0.0 | 0.0 | 0.00 | 0.00 | 0.00 | 55 | 1021.4 | |
| 20260502221517 | 43 | 0.0 | 1.0 | 0.00 | 0.00 | 0.00 | 55 | 1021.6 | |
| 20260502220537 | 44 | 0.0 | 1.0 | 0.00 | 0.00 | 0.00 | 53 | 1021.6 | |
| 20260502214537 | 45 | 126 | 2.0 | 3.0 | 0.00 | 0.00 | 0.00 | 51 | 1021.7 |
| 20260502213516 | 45 | 114 | 2.0 | 4.0 | 0.00 | 0.00 | 0.00 | 50 | 1021.7 |
| 20260502212516 | 46 | 113 | 1.0 | 2.0 | 0.00 | 0.00 | 0.00 | 50 | 1021.8 |